• Join FlightAware (Why Join?)
  • Login
  • US Flag GB Flag 
18:46 EDT


 

Airport Tracker/Info


-or-


 

Live Flight TrackerFlight Track Log ✈ DAL268 ✈ 21-Sep-2013 ✈ KSFO - KJFK

Flight Track Log - Related Links

Times and Time Zones

All times are in EDT time to prevent confusion due to time zone crossing. See the DAL268 flight status page for this flight to view local times or setup timezone preferences in your user account.

Time Position Orientation Groundspeed Altitude Reporting Facility
EDT Latitude Longitude Course Direction KTS MPH feet Rate Location/Type
14:28 37.6140 -122.3640 360° North 86 99  Level FlightAware
14:29 37.6233 -122.3860 298° West 178 205 200 840 Climbing FlightAware ADS-B
14:29 37.6258 -122.3920 298° West 178 205 500 3,000 Climbing FlightAware ADS-B
14:29 37.6276 -122.3940 319° Northwest 176 203 700 3,300 Climbing FlightAware ADS-B
14:29 37.6305 -122.3980 312° West 181 208 1,000 3,000 Climbing FlightAware ADS-B
14:29 37.6341 -122.4000 336° Northwest 179 206 1,200 3,000 Climbing FlightAware ADS-B
14:29 37.6386 -122.4020 341° North 180 207 1,500 3,300 Climbing FlightAware ADS-B
14:29 37.6413 -122.4020 360° North 181 208 1,700 3,000 Climbing FlightAware ADS-B
14:29 37.6452 -122.4010 11° North 182 209 1,900 3,420 Climbing FlightAware ADS-B
14:29 37.6476 -122.4000 18° North 181 208 2,100 2,640 Climbing FlightAware ADS-B
14:29 37.6517 -122.3960 38° Northeast 183 211 2,300 1,800 Climbing FlightAware ADS-B
14:29 37.6542 -122.3940 32° Northeast 185 213 2,400 1,620 Climbing FlightAware ADS-B
14:30 37.6580 -122.3870 56° Northeast 192 221 2,600 2,160 Climbing FlightAware ADS-B
14:30 37.6598 -122.3840 53° Northeast 195 224 2,800 2,280 Climbing FlightAware ADS-B
14:30 37.6674 -122.3670 61° Northeast 193 222 3,400 1,800 Climbing FlightAware ADS-B
14:30 37.6743 -122.3540 56° Northeast 210 242 3,700 1,320 Climbing FlightAware ADS-B
14:30 37.6771 -122.3490 55° Northeast 214 246 3,800 1,500 Climbing FlightAware ADS-B
14:30 37.6792 -122.3460 49° Northeast 219 252 3,900 1,500 Climbing FlightAware ADS-B
14:30 37.6830 -122.3410 46° Northeast 225 259 4,000 960 Climbing FlightAware ADS-B
14:30 37.6883 -122.3360 37° Northeast 234 269 4,100 1,320 Climbing FlightAware ADS-B
14:31 37.7022 -122.3230 36° Northeast 251 289 4,500 1,800 Climbing FlightAware ADS-B
14:31 37.7274 -122.3000 36° Northeast 271 312 5,300 1,860 Climbing FlightAware ADS-B
14:31 37.7436 -122.2850 36° Northeast 288 331 5,800 2,280 Climbing FlightAware ADS-B
14:32 37.7605 -122.2680 38° Northeast 295 339 6,500 2,700 Climbing FlightAware ADS-B
14:32 37.7795 -122.2500 37° Northeast 297 342 7,300 2,820 Climbing FlightAware ADS-B
14:32 37.7977 -122.2320 38° Northeast 300 345 8,100 2,880 Climbing FlightAware ADS-B
14:32 37.8118 -122.2110 50° Northeast 310 357 8,800 2,580 Climbing FlightAware ADS-B
14:33 37.8177 -122.1990 58° Northeast 311 358 9,100 2,280 Climbing FlightAware ADS-B
14:33 37.8204 -122.1920 64° Northeast 312 359 9,300 2,460 Climbing FlightAware ADS-B
14:33 37.8241 -122.1800 69° East 314 361 9,600 3,000 Climbing FlightAware ADS-B
14:33 37.8257 -122.1730 74° East 315 362 9,800 2,820 Climbing FlightAware ADS-B
14:33 37.8378 -122.1190 74° East 320 368 11,200 1,920 Climbing FlightAware ADS-B
14:34 37.8501 -122.0620 75° East 343 395 11,800 1,260 Climbing FlightAware ADS-B
14:34 37.8631 -122.0010 75° East 366 421 12,500 1,680 Climbing FlightAware ADS-B
14:35 37.8769 -121.9380 74° East 372 428 13,500 1,980 Climbing FlightAware ADS-B
14:35 37.8940 -121.8580 75° East 373 429 14,800 2,040 Climbing FlightAware ADS-B
14:36 37.9097 -121.7860 75° East 382 440 16,000 1,740 Climbing FlightAware ADS-B
14:37 37.9238 -121.7190 75° East 397 457 16,700 1,380 Climbing FlightAware ADS-B
14:37 37.9384 -121.6510 75° East 405 466 17,400 1,380 Climbing FlightAware ADS-B
14:38 37.9533 -121.5810 75° East 416 479 18,100 1,260 Climbing FlightAware ADS-B
14:38 37.9689 -121.5080 75° East 429 494 18,700 1,320 Climbing FlightAware ADS-B
14:39 37.9846 -121.4340 75° East 435 501 19,500 1,560 Climbing FlightAware ADS-B
14:39 38.0007 -121.3570 75° East 441 507 20,300 1,500 Climbing FlightAware ADS-B
14:40 38.0253 -121.2400 75° East 448 516 21,500 1,440 Climbing FlightAware ADS-B
14:40 38.0450 -121.1480 75° East 454 522 22,300 1,260 Climbing FlightAware
14:41 38.0640 -121.0570 75° East 462 532 23,100 1,200 Climbing FlightAware
14:42 38.0830 -120.9670 75° East 472 543 23,700 1,140 Climbing FlightAware
14:42 38.1080 -120.8630 73° East 478 550 24,500 1,260 Climbing FlightAware
14:43 38.1320 -120.7650 73° East 484 557 25,300 1,320 Climbing FlightAware
14:43 38.1530 -120.6810 72° East 487 560 26,000 1,320 Climbing FlightAware
14:44 38.1770 -120.5800 73° East 489 563 26,800 1,200 Climbing FlightAware
14:45 38.2010 -120.4800 73° East 494 568 27,500 1,080 Climbing FlightAware
14:45 38.2230 -120.3850 74° East 499 574 28,100 900 Climbing FlightAware
14:46 38.2440 -120.2960 73° East 507 583 28,500 540 Climbing FlightAware
14:46 38.2710 -120.1810 73° East 522 601 28,800 840 Climbing FlightAware
14:47 38.2960 -120.0760 73° East 521 600 29,600 1,080 Climbing FlightAware
14:47 38.3160 -119.9870 74° East 526 605 30,000 1,800 Climbing FlightAware
14:48 38.3410 -119.8810 73° East 503 579 31,600 2,280 Climbing FlightAware
14:49 38.3640 -119.7840 73° East 488 562 32,800 1,080 Climbing FlightAware
14:49 38.3850 -119.6900 74° East 498 573 32,900 300 Climbing FlightAware
14:50 38.4070 -119.5940 74° East 505 581 33,200 720 Climbing FlightAware
14:50 38.4330 -119.4810 74° East 506 582 33,800 720 Climbing FlightAware
14:51 38.4540 -119.3860 74° East 515 593 34,100 300 Climbing FlightAware
14:51 38.4710 -119.3120 74° East 522 601 34,100 540 Level FlightAware
14:52 38.4970 -119.1900 75° East 524 603 34,700 720 Climbing FlightAware
14:53 38.5120 -119.0900 79° East 516 594 35,000 240 Climbing FlightAware
14:53 38.5230 -118.9830 82° East 517 595 35,000  Level FlightAware
14:54 38.5340 -118.8710 83° East 521 600 35,000  Level FlightAware
14:54 38.5430 -118.7760 83° East 530 610 35,000  Level FlightAware
14:55 38.5530 -118.6750 83° East 532 612 35,000  Level FlightAware
14:56 38.5680 -118.5140 83° East 550 633 35,000  Level FlightAware
14:56 38.5780 -118.4110 83° East 554 638 35,000  Level FlightAware
14:57 38.5890 -118.2950 83° East 552 635 35,000  Level FlightAware
14:57 38.6000 -118.1820 83° East 547 629 35,000  Level FlightAware
14:58 38.6100 -118.0730 83° East 542 624 35,000  Level FlightAware
14:59 38.6200 -117.9650 83° East 542 624 35,000  Level FlightAware
14:59 38.6300 -117.8680 82° East 542 624 35,000  Level FlightAware
15:00 38.6390 -117.7700 83° East 542 624 35,000  Level FlightAware
15:00 38.6480 -117.6730 83° East 542 624 35,000  Level FlightAware
15:01 38.6580 -117.5750 83° East 542 624 35,000  Level FlightAware
15:02 38.6670 -117.4750 83° East 542 624 35,000  Level FlightAware
15:02 38.6770 -117.3770 83° East 542 624 35,000  Level FlightAware
15:03 38.6860 -117.2800 83° East 542 624 35,000  Level FlightAware
15:04 38.6950 -117.1820 83° East 542 624 35,000  Level FlightAware
15:04 38.7050 -117.0820 83° East 542 624 35,000  Level FlightAware
15:05 38.7140 -116.9900 83° East 542 624 35,000  Level FlightAware
15:05 38.7230 -116.8890 83° East 542 624 35,000  Level FlightAware
15:06 38.7330 -116.7890 83° East 542 624 35,000  Level FlightAware
15:06 38.7420 -116.6970 83° East 542 624 35,000  Level FlightAware
15:07 38.7520 -116.5940 83° East 542 624 35,000  Level FlightAware
15:08 38.7600 -116.5020 84° East 542 624 35,000 1,800 Level FlightAware
15:08 38.8431 -116.1697 84° East 557 641 37,000 1,260 Climbing Salt Lake Center
15:09 38.8706 -115.9736 80° East 557 641 37,000  Level Salt Lake Center
15:10 38.9031 -115.7406 80° East 555 639 37,000  Level Salt Lake Center
15:11 38.9297 -115.5456 80° East 554 638 37,000  Level Salt Lake Center
15:12 38.9581 -115.3431 80° East 552 635 37,000  Level Salt Lake Center
15:13 38.9856 -115.1492 80° East 553 636 37,000  Level Salt Lake Center
15:14 39.0100 -114.9606 80° East 541 623 37,000  Level Salt Lake Center
15:20 39.1510 -113.8250 80° East 532 612 37,000  Level FlightAware
15:21 39.1620 -113.7380 81° East 532 612 37,000  Level FlightAware
15:22 39.1780 -113.6020 81° East 535 616 37,000  Level FlightAware
15:22 39.1900 -113.5000 81° East 535 616 37,000  Level FlightAware
15:23 39.2090 -113.3430 81° East 533 613 37,000  Level FlightAware
15:24 39.2200 -113.2470 82° East 533 613 37,000  Level FlightAware
15:24 39.2331 -113.1280 82° East 532 612 37,000  Level FlightAware ADS-B
15:25 39.2445 -113.0270 82° East 532 612 37,000  Level FlightAware ADS-B
15:25 39.2580 -112.9070 82° East 532 612 37,000  Level FlightAware ADS-B
15:26 39.2686 -112.8120 82° East 529 609 37,000  Level FlightAware ADS-B
15:26 39.2790 -112.7180 82° East 530 610 37,000  Level FlightAware ADS-B
15:27 39.2894 -112.6230 82° East 531 611 37,000  Level FlightAware ADS-B
15:27 39.2964 -112.5640 81° East 530 610 37,000  Level FlightAware ADS-B
15:27 39.3055 -112.5150 76° East 533 613 37,000  Level FlightAware ADS-B
15:27 39.3148 -112.4780 72° East 535 616 37,000  Level FlightAware ADS-B
15:28 39.3265 -112.4400 68° East 534 615 37,000  Level FlightAware ADS-B
15:28 39.3586 -112.3520 65° Northeast 534 615 37,000  Level FlightAware ADS-B
15:29 39.3916 -112.2630 64° Northeast 534 615 37,000  Level FlightAware ADS-B
15:29 39.4237 -112.1760 64° Northeast 534 615 37,000  Level FlightAware ADS-B
15:30 39.4564 -112.0860 65° Northeast 532 612 37,000  Level FlightAware ADS-B
15:30 39.4883 -111.9990 65° Northeast 531 611 37,000  Level FlightAware ADS-B
15:31 39.5201 -111.9120 65° Northeast 530 610 37,000  Level FlightAware ADS-B
15:31 39.5516 -111.8250 65° Northeast 530 610 37,000  Level FlightAware ADS-B
15:32 39.5834 -111.7370 65° Northeast 529 609 37,000  Level FlightAware ADS-B
15:32 39.6152 -111.6490 65° Northeast 527 606 37,000  Level FlightAware ADS-B
15:33 39.6464 -111.5620 65° Northeast 527 606 37,000  Level FlightAware ADS-B
15:33 39.6839 -111.4570 65° Northeast 526 605 37,000  Level FlightAware ADS-B
15:34 39.7147 -111.3710 65° Northeast 523 602 37,000  Level FlightAware ADS-B
15:34 39.7454 -111.2850 65° Northeast 522 601 37,000  Level FlightAware ADS-B
15:35 39.7811 -111.1850 65° Northeast 520 598 37,000  Level FlightAware ADS-B
15:36 39.8131 -111.0940 65° Northeast 521 600 37,000  Level FlightAware ADS-B
15:36 39.8516 -110.9850 65° Northeast 518 596 37,000  Level FlightAware ADS-B
15:37 39.8818 -110.8990 65° Northeast 516 594 37,000  Level FlightAware ADS-B
15:37 39.9212 -110.7860 66° East 515 593 37,000  Level FlightAware ADS-B
15:38 39.9670 -110.6550 65° Northeast 513 590 37,000  Level FlightAware
15:39 40.0040 -110.5490 65° Northeast 514 592 37,000  Level FlightAware
15:39 40.0350 -110.4580 66° East 513 590 37,000  Level FlightAware
15:40 40.0660 -110.3690 66° East 513 590 37,000  Level FlightAware
15:40 40.0990 -110.2740 66° East 511 588 37,000  Level FlightAware
15:41 40.1350 -110.1670 66° East 511 588 37,000  Level FlightAware
15:42 40.1630 -110.0780 68° East 511 588 37,000  Level FlightAware
15:42 40.1950 -109.9690 69° East 512 589 37,000  Level FlightAware
15:43 40.2270 -109.8610 69° East 511 588 37,000  Level FlightAware
15:43 40.2510 -109.7760 70° East 510 587 37,000  Level FlightAware
15:44 40.2820 -109.6700 69° East 511 588 37,000  Level FlightAware
15:45 40.3130 -109.5630 69° East 511 588 37,000  Level FlightAware
15:45 40.3380 -109.4770 69° East 511 588 37,000  Level FlightAware
15:46 40.3670 -109.3750 70° East 511 588 37,000  Level FlightAware
15:46 40.4000 -109.2610 69° East 511 588 37,000  Level FlightAware
15:47 40.4280 -109.1590 70° East 511 588 37,000  Level FlightAware
15:47 40.4530 -109.0710 70° East 511 588 37,000  Level FlightAware
15:48 40.4810 -108.9730 69° East 510 587 37,000  Level FlightAware
15:49 40.5170 -108.8440 70° East 511 588 37,000  Level FlightAware
15:49 40.5450 -108.7430 70° East 510 587 37,000  Level FlightAware
15:50 40.5750 -108.6380 69° East 509 586 37,000  Level FlightAware
15:51 40.6060 -108.5220 71° East 509 586 37,000  Level FlightAware
15:51 40.6360 -108.4170 69° East 510 587 37,000  Level FlightAware
15:52 40.6630 -108.3160 71° East 510 587 37,000  Level FlightAware
15:52 40.6920 -108.2110 70° East 508 585 37,000  Level FlightAware
15:53 40.7200 -108.1060 71° East 508 585 37,000  Level FlightAware
15:53 40.7400 -108.0340 70° East 509 586 37,000  Level FlightAware
15:54 40.7660 -107.9380 70° East 509 586 37,000  Level FlightAware
15:55 40.8090 -107.7790 70° East 507 583 37,000  Level FlightAware
15:55 40.8360 -107.6760 71° East 508 585 37,000  Level FlightAware
15:56 40.8610 -107.5830 70° East 508 585 37,000  Level FlightAware
15:57 40.8870 -107.4880 70° East 508 585 37,000  Level FlightAware
15:57 40.9120 -107.3960 70° East 508 585 37,000  Level FlightAware
15:58 40.9370 -107.3060 70° East 508 585 37,000  Level FlightAware
15:58 40.9620 -107.2170 70° East 508 585 37,000  Level FlightAware
15:59 40.9860 -107.1270 71° East 508 585 37,000  Level FlightAware
16:00 41.0110 -107.0380 70° East 508 585 37,000  Level FlightAware
16:00 41.0350 -106.9480 71° East 508 585 37,000  Level FlightAware
16:01 41.0850 -106.7280 73° East 512 589 37,000  Level FlightAware
16:02 41.1230 -106.5800 71° East 511 588 37,000  Level FlightAware
16:02 41.1470 -106.4860 71° East 511 588 37,000  Level FlightAware
16:03 41.1720 -106.3880 71° East 511 588 37,000  Level FlightAware
16:04 41.2110 -106.2310 72° East 506 582 37,000  Level FlightAware
16:04 41.2360 -106.1310 72° East 507 583 37,000  Level FlightAware
16:05 41.2590 -106.0380 72° East 507 583 37,000  Level FlightAware
16:05 41.2870 -105.9250 72° East 505 581 37,000  Level FlightAware
16:06 41.3120 -105.8250 72° East 505 581 37,000  Level FlightAware
16:07 41.3400 -105.7060 73° East 507 583 37,000  Level FlightAware
16:07 41.3600 -105.6100 74° East 506 582 37,000  Level FlightAware
16:08 41.3780 -105.5140 76° East 506 582 37,000  Level FlightAware
16:08 41.3990 -105.4060 75° East 505 581 37,000  Level FlightAware
16:09 41.4200 -105.2960 76° East 503 579 37,000  Level FlightAware
16:09 41.4400 -105.1900 76° East 503 579 37,000  Level FlightAware
16:10 41.4610 -105.0790 76° East 503 579 37,000  Level FlightAware
16:11 41.4790 -104.9820 76° East 503 579 37,000  Level FlightAware
16:11 41.5000 -104.8730 76° East 504 580 37,000  Level FlightAware
16:12 41.5190 -104.7670 77° East 504 580 37,000  Level FlightAware
16:12 41.5400 -104.6560 76° East 504 580 37,000  Level FlightAware
16:13 41.5570 -104.5640 76° East 503 579 37,000  Level FlightAware
16:13 41.5770 -104.4540 76° East 504 580 37,000  Level FlightAware
16:14 41.5960 -104.3480 76° East 504 580 37,000  Level FlightAware
16:15 41.6150 -104.2370 77° East 505 581 37,000  Level FlightAware
16:15 41.6300 -104.1320 79° East 505 581 37,000  Level FlightAware
16:16 41.6450 -104.0250 79° East 504 580 37,000  Level FlightAware
16:16 41.6590 -103.9210 80° East 503 579 37,000  Level FlightAware
16:17 41.6750 -103.8070 79° East 502 578 37,000  Level FlightAware
16:18 41.6910 -103.6970 79° East 501 577 37,000  Level FlightAware
16:18 41.7100 -103.5600 79° East 499 574 37,000  Level FlightAware
16:19 41.7250 -103.4550 79° East 499 574 37,000  Level FlightAware
16:19 41.7390 -103.3560 79° East 498 573 37,000  Level FlightAware
16:20 41.7520 -103.2610 80° East 498 573 37,000  Level FlightAware
16:21 41.7660 -103.1660 79° East 498 573 37,000  Level FlightAware
16:21 41.7800 -103.0730 79° East 498 573 37,000  Level FlightAware
16:22 41.7930 -102.9800 79° East 498 573 37,000  Level FlightAware
16:23 41.8070 -102.8870 79° East 498 573 37,000  Level FlightAware
16:23 41.8200 -102.7940 79° East 498 573 37,000  Level FlightAware
16:24 41.8340 -102.6990 79° East 498 573 37,000  Level FlightAware
16:24 41.8470 -102.6060 79° East 498 573 37,000  Level FlightAware
16:25 41.8600 -102.5160 79° East 498 573 37,000  Level FlightAware
16:26 41.8740 -102.4230 79° East 498 573 37,000  Level FlightAware
16:26 41.8870 -102.3300 79° East 498 573 37,000  Level FlightAware
16:27 41.9010 -102.2370 79° East 498 573 37,000  Level FlightAware
16:27 41.9180 -102.1180 79° East 498 573 37,000  Level FlightAware
16:28 41.9320 -102.0220 79° East 498 573 37,000  Level FlightAware
16:29 41.9450 -101.9290 79° East 498 573 37,000  Level FlightAware
16:29 41.9590 -101.8360 79° East 498 573 37,000  Level FlightAware
16:30 41.9836 -101.4525 79° East 502 578 37,000  Level Denver Center
16:31 42.0083 -101.2450 81° East 503 579 37,000  Level Denver Center
16:32 42.0264 -101.0953 81° East 504 580 37,000  Level Denver Center
16:38 42.1589 -99.9001 81° East 491 565 37,000  Level FlightAware ADS-B
16:39 42.1703 -99.7913 82° East 490 564 37,000  Level FlightAware ADS-B
16:39 42.1800 -99.6988 82° East 490 564 37,000  Level FlightAware ADS-B
16:40 42.1894 -99.6081 82° East 489 563 37,000  Level FlightAware ADS-B
16:40 42.1988 -99.5169 82° East 490 564 37,000  Level FlightAware ADS-B
16:41 42.2080 -99.4261 82° East 489 563 37,000  Level FlightAware ADS-B
16:42 42.2208 -99.2993 82° East 490 564 37,000  Level FlightAware ADS-B
16:42 42.2303 -99.2036 82° East 491 565 37,000  Level FlightAware ADS-B
16:43 42.2395 -99.1113 82° East 491 565 37,000  Level FlightAware ADS-B
16:43 42.2485 -99.0192 82° East 491 565 37,000  Level FlightAware ADS-B
16:44 42.2574 -98.9280 82° East 491 565 37,000  Level FlightAware ADS-B
16:44 42.2666 -98.8337 82° East 491 565 37,000  Level FlightAware ADS-B
16:45 42.2777 -98.7173 83° East 493 567 37,000  Level FlightAware ADS-B
16:45 42.2881 -98.6066 83° East 493 567 37,000  Level FlightAware ADS-B
16:46 42.2968 -98.5138 83° East 493 567 37,000  Level FlightAware ADS-B
16:46 42.3054 -98.4219 83° East 493 567 37,000  Level FlightAware ADS-B
16:47 42.3140 -98.3286 83° East 493 567 37,000  Level FlightAware ADS-B
16:47 42.3224 -98.2362 83° East 494 568 37,000  Level FlightAware ADS-B
16:48 42.3340 -98.1073 83° East 495 570 37,000  Level FlightAware ADS-B
16:49 42.3423 -98.0150 83° East 495 570 37,000  Level FlightAware ADS-B
16:49 42.3506 -97.9207 83° East 495 570 37,000  Level FlightAware ADS-B
16:50 42.3589 -97.8257 83° East 495 570 37,000  Level FlightAware ADS-B
16:50 42.3672 -97.7304 83° East 496 571 37,000  Level FlightAware ADS-B
16:51 42.3758 -97.6294 83° East 496 571 37,000  Level FlightAware ADS-B
16:51 42.3837 -97.5364 83° East 497 572 37,000  Level FlightAware ADS-B
16:52 42.3917 -97.4418 83° East 498 573 37,000  Level FlightAware ADS-B
16:52 42.3997 -97.3460 84° East 499 574 37,000  Level FlightAware ADS-B
16:53 42.4076 -97.2505 84° East 499 574 37,000  Level FlightAware ADS-B
16:53 42.4183 -97.1194 84° East 500 575 37,000  Level FlightAware ADS-B
16:54 42.4259 -97.0239 84° East 500 575 37,000  Level FlightAware ADS-B
16:54 42.4334 -96.9295 84° East 501 577 37,000  Level FlightAware ADS-B
16:55 42.4408 -96.8351 84° East 501 577 37,000  Level FlightAware ADS-B
16:56 42.4482 -96.7406 84° East 501 577 37,000  Level FlightAware ADS-B
16:56 42.4556 -96.6440 84° East 501 577 37,000  Level FlightAware ADS-B
16:57 42.4628 -96.5501 84° East 501 577 37,000  Level FlightAware ADS-B
16:57 42.4701 -96.4530 84° East 501 577 37,000  Level FlightAware ADS-B
16:58 42.4771 -96.3587 84° East 501 577 37,000  Level FlightAware ADS-B
16:58 42.4843 -96.2619 84° East 501 577 37,000  Level FlightAware ADS-B
16:59 42.4911 -96.1679 84° East 500 575 37,000  Level FlightAware ADS-B
16:59 42.4979 -96.0733 84° East 500 575 37,000  Level FlightAware ADS-B
17:00 42.5046 -95.9783 85° East 500 575 37,000  Level FlightAware ADS-B
17:00 42.5112 -95.8841 85° East 500 575 37,000  Level FlightAware ADS-B
17:01 42.5180 -95.7877 85° East 499 574 37,000  Level FlightAware ADS-B
17:01 42.5246 -95.6901 85° East 499 574 37,000  Level FlightAware ADS-B
17:02 42.5310 -95.5970 85° East 498 573 37,000  Level FlightAware ADS-B
17:02 42.5373 -95.5028 85° East 498 573 37,000  Level FlightAware ADS-B
17:02 42.5395 -95.4693 85° East 497 572 37,000  Level FlightAware ADS-B
17:03 42.5437 -95.4056 85° East 496 571 37,000  Level FlightAware ADS-B
17:03 42.5469 -95.3566 85° East 494 568 37,000  Level FlightAware ADS-B
17:03 42.5498 -95.3121 85° East 493 567 37,000  Level FlightAware ADS-B
17:04 42.5543 -95.2416 85° East 492 566 37,000  Level FlightAware ADS-B
17:04 42.5558 -95.2189 85° East 492 566 37,000  Level FlightAware ADS-B
17:04 42.5616 -95.1272 85° East 490 564 37,000  Level FlightAware ADS-B
17:04 42.5619 -95.1238 84° East 490 564 37,000  Level FlightAware ADS-B
17:05 42.5674 -95.0354 85° East 490 564 37,000  Level FlightAware ADS-B
17:05 42.5716 -94.9680 85° East 489 563 37,000  Level FlightAware ADS-B
17:05 42.5731 -94.9433 85° East 489 563 37,000  Level FlightAware ADS-B
17:06 42.5787 -94.8515 85° East 488 562 37,000  Level FlightAware ADS-B
17:06 42.5799 -94.8320 85° East 488 562 37,000  Level FlightAware ADS-B
17:06 42.5843 -94.7590 85° East 488 562 37,000  Level FlightAware ADS-B
17:06 42.5861 -94.7282 85° East 488 562 37,000  Level FlightAware ADS-B
17:07 42.5899 -94.6653 85° East 488 562 37,000  Level FlightAware ADS-B
17:07 42.5945 -94.5874 85° East 489 563 37,000  Level FlightAware ADS-B
17:07 42.5955 -94.5703 85° East 489 563 37,000  Level FlightAware ADS-B
17:08 42.6003 -94.4868 86° East 489 563 37,000  Level FlightAware ADS-B
17:08 42.6007 -94.4783 86° East 488 562 37,000  Level FlightAware ADS-B
17:08 42.6059 -94.3869 86° East 488 562 37,000  Level FlightAware ADS-B
17:08 42.6065 -94.3774 85° East 488 562 37,000  Level FlightAware ADS-B
17:09 42.6112 -94.2947 86° East 489 563 37,000  Level FlightAware ADS-B
17:09 42.6125 -94.2691 86° East 488 562 37,000  Level FlightAware ADS-B
17:09 42.6136 -94.1662 89° East 491 565 37,000  Level FlightAware ADS-B
17:10 42.6134 -94.1209 90° East 490 564 37,000  Level FlightAware ADS-B
17:10 42.6133 -94.0207 90° East 492 566 37,000  Level FlightAware ADS-B
17:11 42.6135 -93.9282 90° East 491 565 37,000  Level FlightAware ADS-B
17:11 42.6139 -93.8576 90° East 490 564 37,000  Level FlightAware ADS-B
17:11 42.6142 -93.8024 90° East 490 564 37,000  Level FlightAware ADS-B
17:12 42.6150 -93.6570 90° East 489 563 37,000  Level FlightAware
17:13 42.6160 -93.5470 89° East 489 563 37,000  Level FlightAware
17:13 42.6160 -93.4330 90° East 489 563 37,000  Level FlightAware
17:14 42.6164 -93.4153 88° East 489 563 37,000  Level FlightAware ADS-B
17:14 42.6170 -93.3240 89° East 490 564 37,000  Level FlightAware
17:14 42.6167 -93.2588 90° East 490 564 37,000  Level FlightAware ADS-B
17:15 42.6170 -93.1220 90° East 490 564 37,000  Level FlightAware
17:16 42.6170 -93.0110 90° East 491 565 37,000  Level FlightAware
17:16 42.6160 -92.8900 91° East 491 565 37,000  Level FlightAware
17:17 42.6162 -92.8158 90° East 491 565 37,000  Level FlightAware ADS-B
17:17 42.6158 -92.7197 90° East 490 564 37,000  Level FlightAware ADS-B
17:18 42.6150 -92.5730 90° East 490 564 37,000  Level FlightAware
17:19 42.6145 -92.4700 90° East 490 564 37,000  Level FlightAware ADS-B
17:19 42.6141 -92.3970 90° East 490 564 37,000  Level FlightAware ADS-B
17:20 42.6134 -92.3013 91° East 490 564 37,000  Level FlightAware ADS-B
17:20 42.6120 -92.1440 91° East 490 564 37,000  Level FlightAware
17:21 42.6121 -92.1317 90° East 490 564 37,000  Level FlightAware ADS-B
17:21 42.6110 -92.0410 91° East 490 564 37,000  Level FlightAware
17:21 42.6108 -92.0053 90° East 490 564 37,000  Level FlightAware ADS-B
17:22 42.6096 -91.8873 91° East 491 565 37,000  Level FlightAware ADS-B
17:22 42.6083 -91.7812 91° East 492 566 37,000  Level FlightAware ADS-B
17:23 42.6072 -91.6897 91° East 492 566 37,000  Level FlightAware ADS-B
17:23 42.6060 -91.5979 91° East 493 567 37,000  Level FlightAware ADS-B
17:24 42.6050 -91.5070 91° East 493 567 37,000  Level FlightAware
17:24 42.6043 -91.4857 92° East 493 567 37,000  Level FlightAware ADS-B
17:25 42.6023 -91.3526 91° East 492 566 37,000  Level FlightAware ADS-B
17:25 42.6009 -91.2606 91° East 492 566 37,000  Level FlightAware ADS-B
17:26 42.5987 -91.1365 91° East 492 566 37,000  Level FlightAware ADS-B
17:26 42.5972 -91.0528 91° East 492 566 37,000  Level FlightAware ADS-B
17:27 42.5948 -90.9247 91° East 492 566 37,000  Level FlightAware ADS-B
17:28 42.5926 -90.8191 92° East 492 566 37,000  Level FlightAware ADS-B
17:28 42.5908 -90.7310 92° East 492 566 37,000  Level FlightAware ADS-B
17:29 42.5870 -90.5400 91° East 492 566 37,000  Level FlightAware
17:30 42.5840 -90.4220 92° East 493 567 37,000  Level FlightAware
17:30 42.5810 -90.3090 92° East 493 567 37,000  Level FlightAware
17:31 42.5780 -90.2080 92° East 493 567 37,000  Level FlightAware
17:31 42.5760 -90.1010 91° East 493 567 37,000  Level FlightAware
17:32 42.5730 -89.9860 92° East 492 566 37,000  Level FlightAware
17:33 42.5700 -89.8880 92° East 492 566 37,000  Level FlightAware
17:33 42.5670 -89.7810 92° East 491 565 37,000  Level FlightAware
17:34 42.5630 -89.6610 93° East 491 565 37,000  Level FlightAware
17:34 42.5600 -89.5610 92° East 491 565 37,000  Level FlightAware
17:35 42.5570 -89.4540 92° East 491 565 37,000  Level FlightAware
17:36 42.5530 -89.3480 93° East 492 566 37,000  Level FlightAware
17:36 42.5490 -89.2370 93° East 493 567 37,000 120 Level FlightAware
17:37 42.5450 -89.1220 93° East 494 568 37,200 660 Climbing FlightAware
17:37 42.5420 -89.0230 92° East 492 566 37,800 1,020 Climbing FlightAware
17:38 42.5380 -88.9160 93° East 488 562 38,400 900 Climbing FlightAware
17:38 42.5340 -88.8080 93° East 487 560 38,900 480 Climbing FlightAware
17:39 42.5290 -88.6990 94° East 486 559 39,000 60 Climbing FlightAware
17:40 42.5260 -88.6000 92° East 485 558 39,000  Level FlightAware
17:40 42.5210 -88.4880 93° East 486 559 39,000  Level FlightAware
17:41 42.5160 -88.3760 93° East 489 563 39,000  Level FlightAware
17:41 42.5120 -88.2770 93° East 490 564 39,000  Level FlightAware
17:42 42.5080 -88.1710 93° East 491 565 39,000  Level FlightAware
17:43 42.5030 -88.0760 94° East 492 566 39,000  Level FlightAware
17:43 42.5000 -87.9560 92° East 492 566 39,000  Level FlightAware
17:44 42.5000 -87.8450 90° East 491 565 39,000  Level FlightAware
17:44 42.5000 -87.7500 90° East 491 565 39,000  Level FlightAware
17:45 42.5000 -87.6310 90° East 493 567 39,000  Level FlightAware
17:45 42.4990 -87.5320 91° East 493 567 39,000  Level FlightAware
17:46 42.4990 -87.4200 90° East 495 570 39,000  Level FlightAware
17:47 42.4980 -87.3120 91° East 496 571 39,000  Level FlightAware
17:47 42.4970 -87.1950 91° East 497 572 39,000  Level FlightAware
17:48 42.4970 -87.0960 90° East 497 572 39,000  Level FlightAware
17:48 42.4960 -86.9810 91° East 497 572 39,000  Level FlightAware
17:49 42.4950 -86.8740 91° East 498 573 39,000  Level FlightAware
17:50 42.4940 -86.7710 91° East 499 574 39,000  Level FlightAware
17:50 42.4930 -86.6590 91° East 498 573 39,000  Level FlightAware
17:51 42.4910 -86.5470 91° East 498 573 39,000  Level FlightAware
17:51 42.4900 -86.4320 91° East 497 572 39,000  Level FlightAware
17:52 42.4880 -86.3350 92° East 497 572 39,000  Level FlightAware
17:52 42.4870 -86.2250 91° East 498 573 39,000  Level FlightAware
17:53 42.4850 -86.1100 91° East 498 573 39,000  Level FlightAware
17:54 42.4830 -86.0020 91° East 498 573 39,000  Level FlightAware
17:54 42.4810 -85.9000 91° East 497 572 39,000  Level FlightAware
17:55 42.4790 -85.7870 91° East 497 572 39,000  Level FlightAware
17:55 42.4770 -85.6730 91° East 495 570 39,000  Level FlightAware
17:56 42.4750 -85.5720 92° East 494 568 39,000  Level FlightAware
17:57 42.4730 -85.4720 92° East 491 565 39,000  Level FlightAware
17:57 42.4700 -85.3470 92° East 489 563 39,000  Level FlightAware
17:58 42.4680 -85.2520 92° East 487 560 39,000  Level FlightAware
17:58 42.4650 -85.1420 92° East 486 559 39,000  Level FlightAware
17:59 42.4620 -85.0300 92° East 485 558 39,000  Level FlightAware
17:59 42.4600 -84.9330 92° East 484 557 39,000  Level FlightAware
18:00 42.4570 -84.8320 92° East 485 558 39,000  Level FlightAware
18:01 42.4540 -84.7220 92° East 485 558 39,000  Level FlightAware
18:01 42.4500 -84.6070 93° East 486 559 39,000  Level FlightAware
18:02 42.4440 -84.5080 95° East 487 560 39,000  Level FlightAware
18:02 42.4370 -84.3990 95° East 487 560 39,000  Level FlightAware
18:03 42.4300 -84.2900 95° East 488 562 39,000  Level FlightAware
18:04 42.4240 -84.1890 95° East 489 563 39,000  Level FlightAware
18:04 42.4180 -84.0790 94° East 489 563 39,000  Level FlightAware
18:05 42.4110 -83.9680 95° East 489 563 39,000  Level FlightAware
18:05 42.4050 -83.8700 95° East 489 563 39,000  Level FlightAware
18:06 42.3980 -83.7570 95° East 489 563 39,000  Level FlightAware
18:06 42.3910 -83.6580 95° East 490 564 39,000  Level FlightAware
18:07 42.3840 -83.5480 95° East 491 565 39,000  Level FlightAware
18:08 42.3770 -83.4430 95° East 491 565 39,000  Level FlightAware
18:08 42.3690 -83.3260 95° East 492 566 39,000  Level FlightAware
18:09 42.3620 -83.2270 95° East 493 567 39,000  Level FlightAware
18:09 42.3550 -83.1170 95° East 494 568 39,000  Level FlightAware
18:10 42.3470 -83.0090 96° East 496 571 39,000  Level FlightAware
18:11 42.3400 -82.9080 95° East 497 572 39,000  Level FlightAware
18:11 42.3320 -82.7910 95° East 499 574 39,000  Level FlightAware
18:12 42.3250 -82.6920 95° East 500 575 39,000  Level FlightAware
18:12 42.3160 -82.5790 96° East 500 575 39,000  Level FlightAware
18:13 42.3080 -82.4700 96° East 501 577 39,000  Level FlightAware
18:13 42.3010 -82.3740 96° East 502 578 39,000  Level FlightAware
18:14 42.2910 -82.2530 96° East 501 577 39,000  Level FlightAware
18:15 42.2830 -82.1440 96° East 501 577 39,000  Level FlightAware
18:15 42.2740 -82.0310 96° East 501 577 39,000  Level FlightAware
18:16 42.2650 -81.9110 96° East 500 575 39,000  Level FlightAware
18:17 42.2560 -81.7980 96° East 501 577 39,000  Level FlightAware
18:17 42.2470 -81.6880 96° East 501 577 39,000  Level FlightAware
18:18 42.2370 -81.5740 97° East 501 577 39,000  Level FlightAware
18:18 42.2280 -81.4610 96° East 501 577 39,000  Level FlightAware
18:19 42.2190 -81.3650 97° East 501 577 39,000  Level FlightAware
18:19 42.2090 -81.2470 96° East 501 577 39,000  Level FlightAware
18:20 42.2000 -81.1400 96° East 502 578 39,000  Level FlightAware
18:21 42.1900 -81.0300 97° East 503 579 39,000  Level FlightAware
18:21 42.1810 -80.9280 97° East 503 579 39,000  Level FlightAware
18:22 42.1720 -80.8180 96° East 503 579 39,000  Level FlightAware
18:22 42.1610 -80.7000 97° East 501 577 39,000  Level FlightAware
18:23 42.1520 -80.6070 97° East 499 574 39,000  Level FlightAware
18:24 42.1420 -80.4940 97° East 498 573 39,000  Level FlightAware
18:24 42.1310 -80.3800 97° East 497 572 39,000  Level FlightAware
18:25 42.1210 -80.2700 97° East 497 572 39,000  Level FlightAware
18:25 42.1120 -80.1740 97° East 497 572 39,000  Level FlightAware
18:26 42.1010 -80.0580 97° East 497 572 39,000  Level FlightAware
18:26 42.0900 -79.9530 98° East 495 570 39,000  Level FlightAware
18:27 42.0810 -79.8530 97° East 496 571 39,000  Level FlightAware
18:28 42.0700 -79.7440 98° East 496 571 39,000  Level FlightAware
18:28 42.0580 -79.6310 98° East 496 571 39,000  Level FlightAware
18:29 42.0480 -79.5290 97° East 497 572 39,000  Level FlightAware
18:29 42.0370 -79.4220 98° East 497 572 39,000  Level FlightAware
18:30 42.0260 -79.3130 98° East 498 573 39,000  Level FlightAware
18:31 42.0140 -79.2020 98° East 497 572 39,000  Level FlightAware
18:31 42.0040 -79.1040 98° East 498 573 39,000  Level FlightAware
18:32 41.9930 -78.9960 98° East 499 574 39,000  Level FlightAware
18:32 41.9810 -78.8860 98° East 498 573 39,000  Level FlightAware
18:33 41.9690 -78.7740 98° East 497 572 39,000  Level FlightAware
18:33 41.9590 -78.6800 98° East 497 572 39,000  Level FlightAware
18:34 41.9470 -78.5720 98° East 497 572 39,000  Level FlightAware
18:35 41.9340 -78.4600 99° East 495 570 39,000  Level FlightAware
18:35 41.9220 -78.3470 98° East 494 568 39,000  Level FlightAware
18:36 41.9110 -78.2490 99° East 492 566 39,000  Level FlightAware
18:36 41.8980 -78.1420 99° East 491 565 39,000  Level FlightAware
18:37 41.8860 -78.0330 98° East 491 565 39,000  Level FlightAware
18:38 41.8750 -77.9350 99° East 491 565 39,000  Level FlightAware
18:38 41.8580 -77.8290 102° East 482 555 39,000  Level FlightAware
18:39 41.8320 -77.7230 108° East 476 548 39,000  Level FlightAware
18:39 41.8090 -77.6370 110° East 476 548 39,000  Level FlightAware
18:40 41.7830 -77.5410 110° East 476 548 39,000  Level FlightAware
18:40 41.7550 -77.4360 110° East 476 548 39,000  Level FlightAware
18:41 41.7280 -77.3360 110° East 476 548 39,000  Level FlightAware
18:42 41.7040 -77.2460 110° East 476 548 39,000  Level FlightAware
18:42 41.6780 -77.1470 109° East 478 550 39,000  Level FlightAware
18:43 41.6500 -77.0460 110° East 477 549 39,000  Level FlightAware
18:43 41.6260 -76.9560 110° East 478 550 39,000  Level FlightAware
18:44 41.5890 -76.8200 110° East 479 551 39,000  Level FlightAware
18:45 41.5590 -76.7110 110° East 480 552 39,000  Level FlightAware
18:45 41.5320 -76.6120 110° East 481 554 39,000  Level FlightAware
18:46 41.5050 -76.5150 110° East 482 555 39,000  Level FlightAware
18:47 41.4780 -76.4170 110° East 482 555 39,000  Level FlightAware
18:47 41.4500 -76.3190 111° Southeast 483 556 39,000 -780 Level FlightAware
18:48 41.4190 -76.2070 110° East 492 566 38,100 -1,920 Descending FlightAware
18:48 41.3890 -76.1010 111° Southeast 493 567 36,600 -2,460 Descending FlightAware
18:49 41.3580 -75.9890 110° East 490 564 35,000 -3,120 Descending FlightAware
18:50 41.3310 -75.8940 111° Southeast 491 565 32,800 -3,000 Descending FlightAware
18:50 41.3050 -75.8000 110° East 489 563 31,600 -2,820 Descending FlightAware
18:51 41.2750 -75.7000 112° Southeast 493 567 29,600 -3,180 Descending FlightAware
18:51 41.2420 -75.5950 113° Southeast 485 558 27,800 -3,180 Descending FlightAware
18:52 41.2140 -75.5130 114° Southeast 492 566 26,000 -3,420 Descending FlightAware
18:53 41.1780 -75.4050 114° Southeast 493 567 23,900 -2,460 Descending FlightAware
18:53 41.1480 -75.3170 114° Southeast 486 559 23,100 -780 Descending FlightAware
18:54 41.1150 -75.2180 114° Southeast 485 558 23,000 -120 Descending FlightAware
18:54 41.0870 -75.1350 114° Southeast 484 557 23,000  Level FlightAware
18:55 41.0510 -75.0290 114° Southeast 479 551 23,000  Level FlightAware
18:56 41.0180 -74.9340 115° Southeast 479 551 23,000  Level FlightAware
18:56 40.9950 -74.8430 108° East 487 560 23,000 -540 Level FlightAware
18:57 40.9800 -74.7380 101° East 493 567 22,400 -1,200 Descending FlightAware
18:57 40.9690 -74.6300 98° East 477 549 21,600 -1,200 Descending FlightAware
18:58 40.9590 -74.5270 97° East 469 540 21,000 -1,440 Descending FlightAware
18:58 40.9500 -74.4470 98° East 453 521 20,100 -1,740 Descending FlightAware
18:59 40.9390 -74.3460 98° East 436 502 19,100 -900 Descending FlightAware
19:00 40.9279 -74.2492 99° East 396 456 19,000 -180 Descending FlightAware ADS-B
19:00 40.9098 -74.1732 107° East 354 407 18,900 -660 Descending FlightAware ADS-B
19:01 40.8923 -74.1124 111° Southeast 340 391 18,300 -1,320 Descending FlightAware ADS-B
19:01 40.8811 -74.0736 111° Southeast 336 387 17,800 -1,740 Descending FlightAware ADS-B
19:01 40.8696 -74.0482 121° Southeast 331 381 17,300 -1,860 Descending FlightAware ADS-B
19:01 40.8610 -74.0369 135° Southeast 325 374 17,100 -1,680 Descending FlightAware ADS-B
19:02 40.8574 -74.0332 142° Southeast 321 369 17,000 -1,500 Descending FlightAware ADS-B
19:02 40.8460 -74.0246 150° Southeast 316 364 16,800 -1,440 Descending FlightAware ADS-B
19:02 40.8355 -74.0198 161° South 312 359 16,600 -1,680 Descending FlightAware ADS-B
19:02 40.8217 -74.0166 170° South 307 353 16,300 -780 Descending FlightAware ADS-B
19:02 40.7781 -74.0111 175° South 303 349 16,100 -780 Descending FlightAware ADS-B
19:03 40.7341 -74.0054 174° South 301 346 15,500 -1,380 Descending FlightAware ADS-B
19:04 40.6820 -73.9980 174° South 295 339 14,500 -1,500 Descending FlightAware
19:04 40.6258 -73.9881 172° South 298 343 13,500 -1,080 Descending FlightAware ADS-B
19:05 40.5749 -73.9776 171° South 289 333 13,100 -300 Descending FlightAware ADS-B
19:06 40.5200 -73.9090 136° Southeast 309 356 13,100  Level FlightAware
19:06 40.5040 -73.8910 139° Southeast 300 345 13,100  Level FlightAware
19:06 40.4880 -73.8820 157° South 291 335 13,100 240 Level FlightAware
19:07 40.4710 -73.8810 177° South 285 328 13,200 -120 Climbing FlightAware
19:07 40.4230 -73.8840 183° South 283 326 13,000 -840 Descending FlightAware
19:08 40.3750 -73.8880 184° South 278 320 12,200 -1,380 Descending FlightAware
19:08 40.3310 -73.8910 183° South 276 318 11,400 -960 Descending FlightAware
19:09 40.2710 -73.8800 172° South 285 328 10,900 -660 Descending FlightAware
19:09 40.2630 -73.8690 134° Southeast 292 336 10,800 -1,200 Descending FlightAware
19:10 40.2540 -73.8490 121° Southeast 303 349 10,500 -1,260 Descending FlightAware
19:10 40.2520 -73.8200 95° East 313 360 10,200 -840 Descending FlightAware
19:10 40.2560 -73.7960 78° East 315 362 10,100 -780 Descending FlightAware
19:10 40.2640 -73.7630 72° East 315 362 9,800 -900 Descending FlightAware
19:11 40.2710 -73.7320 74° East 314 361 9,600 -720 Descending FlightAware
19:11 40.2830 -73.6850 71° East 318 366 9,300 -720 Descending FlightAware
19:11 40.2920 -73.6710 50° Northeast 316 364 9,200 -900 Descending FlightAware
19:11 40.3080 -73.6560 36° Northeast 310 357 9,000 -780 Descending FlightAware
19:12 40.3330 -73.6390 27° Northeast 301 346 8,800 -720 Descending FlightAware
19:12 40.3630 -73.6190 27° Northeast 289 333 8,500 -600 Descending FlightAware
19:12 40.3860 -73.6030 28° Northeast 279 321 8,400 -480 Descending FlightAware
19:13 40.4100 -73.5860 28° Northeast 275 316 8,200 -480 Descending FlightAware
19:13 40.4330 -73.5710 26° Northeast 273 314 8,100 -660 Descending FlightAware
19:13 40.4530 -73.5580 26° Northeast 271 312 7,800 -1,140 Descending FlightAware
19:14 40.4870 -73.5360 26° Northeast 275 316 7,200 -1,200 Descending FlightAware
19:14 40.5120 -73.5200 26° Northeast 276 318 6,800 -1,080 Descending FlightAware
19:15 40.5350 -73.5050 26° Northeast 275 316 6,500 -900 Descending FlightAware
19:15 40.5590 -73.4900 25° Northeast 273 314 6,200 -900 Descending FlightAware
19:15 40.5800 -73.4770 25° Northeast 271 312 5,900 -1,020 Descending FlightAware
19:16 40.6010 -73.4640 25° Northeast 270 311 5,600 -1,080 Descending FlightAware
19:16 40.6140 -73.4580 19° North 267 307 5,400 -1,020 Descending FlightAware
19:16 40.6210 -73.4580 360° North 264 304 5,300 -660 Descending FlightAware
19:16 40.6480 -73.4620 354° North 261 300 5,100 -300 Descending FlightAware
19:17 40.6790 -73.4680 352° North 264 304 5,100 -180 Level FlightAware
19:17 40.7000 -73.4740 348° North 259 298 5,000 -480 Descending FlightAware
19:17 40.7100 -73.4790 339° North 254 292 4,900 -900 Descending FlightAware
19:17 40.7310 -73.4930 333° Northwest 251 289 4,600 -900 Descending FlightAware
19:18 40.7530 -73.5070 334° Northwest 246 283 4,300 -780 Descending FlightAware
19:18 40.7700 -73.5200 330° Northwest 228 262 4,100 -480 Descending FlightAware
19:18 40.7760 -73.5270 319° Northwest 214 246 4,100 -780 Level FlightAware
19:19 40.7860 -73.5440 308° West 207 238 3,800 -1,080 Descending FlightAware
19:19 40.7910 -73.5560 299° West 200 230 3,600 -960 Descending FlightAware
19:19 40.7960 -73.5790 286° West 197 227 3,300 -1,080 Descending FlightAware
19:19 40.7990 -73.5980 282° West 191 220 3,000 -1,140 Descending FlightAware
19:20 40.7930 -73.6200 250° West 174 200 2,600 -1,020 Descending FlightAware
19:20 40.7860 -73.6370 241° Southwest 170 196 2,300 -840 Descending FlightAware
19:20 40.7810 -73.6440 227° Southwest 167 192 2,200 -600 Descending FlightAware
19:20 40.7740 -73.6520 221° Southwest 168 193 2,100 -180 Descending FlightAware
19:21 40.7590 -73.6670 217° Southwest 166 191 2,100  Level FlightAware
19:21 40.7510 -73.6720 205° Southwest 158 182 2,100 180 Level FlightAware
19:21 40.7390 -73.6820 212° Southwest 143 165 2,200 -180 Climbing FlightAware
19:22 40.7290 -73.6890 208° Southwest 131 151 2,000 -600 Descending FlightAware
19:22 40.7180 -73.6980 212° Southwest 117 135 1,800 -660 Descending FlightAware
19:22 40.7060 -73.7070 210° Southwest 118 136 1,500 -720 Descending FlightAware
19:23 40.7010 -73.7110 211° Southwest 117 135 1,400 -600 Descending FlightAware
19:23 40.6910 -73.7190 211° Southwest 117 135 1,200 -540 Descending FlightAware
19:23 40.6800 -73.7280 212° Southwest 118 136 1,000 -540 Descending FlightAware
19:24 40.6740 -73.7320 207° Southwest 121 139 900 -780 Descending FlightAware
19:24 40.6640 -73.7400 211° Southwest 125 144 600 -720 Descending FlightAware
19:24 40.6520 -73.7490 210° Southwest 132 152 400 -600 Descending FlightAware
19:25 40.6420 -73.7580 214° Southwest 136 157 200 -600 Descending FlightAware
19:25 40.6330 -73.7650 211° Southwest 76 87 -600 Descending FlightAware